Location: Key Biscayne
(25.6930°N, 80.1630°W)
Time: 05:07:36
(UTC-05:00)

Vanguard 2 - Visible Passes

Search period start: 24 February 2018 00:00
Search period end: 06 March 2018 00:00
Orbit: 553 x 2939 km, 32.9° (Epoch: 23 February)

Date Brightness Start Highest point End Pass type
(mag) Time Alt. Az. Time Alt. Az. Time Alt. Az.
24 Feb 9.0 19:03:45 10° WNW 19:14:14 52° N 19:19:11 18° ENE visible
24 Feb 9.6 21:16:41 10° WNW 21:20:38 30° WNW 21:20:38 30° WNW visible
25 Feb 8.8 19:22:29 10° WNW 19:32:42 55° N 19:36:25 26° ENE visible
25 Feb 10.0 21:35:03 10° WNW 21:37:52 23° WNW 21:37:52 23° WNW visible
26 Feb 8.5 19:41:05 10° WNW 19:51:06 63° N 19:53:41 38° ENE visible
26 Feb 10.5 21:53:31 10° WNW 21:55:07 16° W 21:55:07 16° W visible
27 Feb 8.1 19:59:35 10° WNW 20:09:26 75° NNE 20:10:58 56° E visible
27 Feb 10.8 22:12:14 10° W 22:12:24 11° W 22:12:24 11° W visible
28 Feb 8.0 20:18:03 10° WNW 20:27:38 86° SSW 20:28:16 75° SE visible
01 Mar 8.4 20:36:32 10° WNW 20:45:36 63° SW 20:45:36 63° SW visible
02 Mar 9.1 18:41:32 10° WNW 18:54:16 72° NNE 19:01:31 10° E visible
02 Mar 9.0 20:55:09 10° WNW 21:02:58 43° SW 21:02:58 43° SW visible
03 Mar 8.9 19:00:07 10° WNW 19:12:36 85° NNE 19:18:55 15° ESE visible
03 Mar 9.7 21:14:02 10° W 21:20:22 28° SW 21:20:22 28° SW visible
04 Mar 8.9 19:18:40 10° WNW 19:30:47 78° SSW 19:36:21 19° ESE visible
04 Mar 10.3 21:33:28 10° W 21:37:48 18° WSW 21:37:48 18° WSW visible
05 Mar 9.2 19:37:15 10° WNW 19:48:46 60° SSW 19:53:50 21° SE visible
05 Mar 10.8 21:55:00 10° WSW 21:55:17 10° WSW 21:55:17 10° WSW visible
